Date String (YYYY-MM-DD hh:mm:ss) UTC,Instrument flags,Ambient pressure (hPa),Sample flow (lpm),Bypass flow (lpm),Sample temperature (°C),Ambient temperature (°C),ASC tube jacket temperature (°C),LED temperature (°C),Box temperature (°C),Sample RH (%),Span deviation,Mass concentration (μg/m³),Mass concentration (μg/m³),Mass concentration (μg/m³)
DateTimeUTC,F1_M11,P_M11,Q1_M11,Q2_M11,T1_M11,T2_M11,T3_M11,T4_M11,T5_M11,U1_M11,ZSPAN_M11,X2_M11,X0_M11,X1_M11
2022-03-29 20:00:00,,0809.9,5.01,0.00,27.4,26.5,00.0,36.5,29.2,20.9,0000.0,0002.87,0005.87,0002.03
2022-03-29 20:01:00,,0809.8,4.99,0.00,27.4,26.4,00.0,36.5,29.1,20.5,0000.0,0002.91,0006.05,0002.05
2022-03-29 20:02:00,,0809.8,5.00,0.00,27.4,26.4,00.0,36.5,29.1,20.8,0000.0,0002.94,0005.35,0002.06
2022-03-29 20:03:00,,0809.8,5.01,0.00,27.3,26.4,00.0,36.5,29.0,20.8,0000.0,0002.93,0005.19,0002.06
2022-03-29 20:04:00,,0809.8,5.00,0.00,27.3,26.4,00.0,36.5,29.0,21.2,0000.0,0002.98,0005.39,0002.05
2022-03-29 20:05:00,,0809.8,4.99,0.00,27.3,26.4,00.0,36.4,29.0,20.9,0000.0,0002.92,0005.28,0002.02
2022-03-29 20:06:00,,0809.8,5.01,0.00,27.3,26.3,00.0,36.4,29.0,21.0,0000.0,0002.87,0005.18,0001.99
2022-03-29 20:07:00,,0809.8,4.99,0.00,27.2,26.3,00.0,36.4,28.9,20.8,0000.0,0002.82,0005.10,0001.95
2022-03-29 20:08:00,,0809.8,5.01,0.00,27.2,26.3,00.0,36.4,28.9,21.0,0000.0,0002.82,0005.13,0001.94
2022-03-29 20:09:00,,0809.8,5.01,0.00,27.2,26.3,00.0,36.4,28.9,21.0,0000.0,0002.84,0005.16,0001.93
2022-03-29 20:10:00,,0809.8,4.98,0.00,27.2,26.3,00.0,36.3,28.9,21.4,0000.0,0002.83,0005.18,0001.92
2022-03-29 20:11:00,,0809.7,5.00,0.00,27.2,26.3,00.0,36.3,28.9,21.5,0000.0,0002.82,0005.15,0001.91
2022-03-29 20:12:00,,0809.7,5.00,0.00,27.2,26.3,00.0,36.3,28.9,21.4,0000.0,0002.82,0004.95,0001.88
2022-03-29 20:13:00,,0809.7,5.00,0.00,27.1,26.2,00.0,36.3,28.8,21.6,0000.0,0002.77,0005.02,0001.83
2022-03-29 20:14:00,,0809.7,5.02,0.00,27.1,26.2,00.0,36.3,28.8,21.4,0000.0,0002.71,0004.86,0001.77
2022-03-29 20:15:00,,0809.7,5.01,0.00,27.1,26.2,00.0,36.3,28.8,21.8,0000.0,0002.61,0004.65,0001.73
2022-03-29 20:16:00,,0809.7,5.01,0.00,27.1,26.1,00.0,36.2,28.8,21.8,0000.0,0002.62,0004.70,0001.72
2022-03-29 20:17:00,,0809.7,4.99,0.00,27.0,26.1,00.0,36.2,28.7,21.9,0000.0,0002.63,0004.83,0001.70
2022-03-29 20:18:00,,0809.7,5.01,0.00,27.0,26.1,00.0,36.2,28.7,22.1,0000.0,0002.59,0004.73,0001.69
2022-03-29 20:19:00,,0809.7,5.01,0.00,27.0,26.1,00.0,36.2,28.7,22.3,0000.0,0002.54,0004.68,0001.67
2022-03-29 20:20:00,,0809.7,4.99,0.00,27.0,26.1,00.0,36.2,28.7,22.7,0000.0,0002.48,0004.54,0001.67
2022-03-29 20:21:00,,0809.7,5.01,0.00,27.0,26.1,00.0,36.1,28.7,22.5,0000.0,0002.45,0004.47,0001.67
2022-03-29 20:22:00,,0809.7,4.99,0.00,26.9,26.1,00.0,36.1,28.7,21.6,0000.0,0002.45,0004.50,0001.65
2022-03-29 20:23:00,,0809.7,5.02,0.00,26.9,26.1,00.0,36.1,28.6,21.8,0000.0,0002.46,0004.47,0001.66
2022-03-29 20:24:00,,0809.7,4.99,0.00,26.9,26.0,00.0,36.1,28.6,22.3,0000.0,0002.42,0004.24,0001.66
2022-03-29 20:25:00,,0809.7,4.99,0.00,26.9,26.0,00.0,36.1,28.6,21.6,0000.0,0002.41,0004.27,0001.65
2022-03-29 20:26:00,,0809.7,5.01,0.00,26.9,26.0,00.0,36.1,28.6,21.8,0000.0,0002.44,0004.33,0001.63
2022-03-29 20:27:00,,0809.7,4.99,0.00,26.8,26.0,00.0,36.0,28.6,21.9,0000.0,0002.42,0004.30,0001.60
2022-03-29 20:28:00,,0809.7,4.99,0.00,26.8,26.0,00.0,36.0,28.6,22.5,0000.0,0002.36,0004.16,0001.57
2022-03-29 20:29:00,,0809.7,5.01,0.00,26.8,26.0,00.0,36.0,28.6,21.9,0000.0,0002.31,0004.16,0001.52
2022-03-29 20:30:00,,0809.7,4.99,0.00,26.8,26.0,00.0,36.0,28.6,21.9,0000.0,0002.22,0003.99,0001.47
2022-03-29 20:31:00,,0809.7,5.02,0.00,26.8,26.1,00.0,36.0,28.6,21.9,0000.0,0002.15,0003.93,0001.40
2022-03-29 20:32:00,,0809.7,5.00,0.00,26.8,26.1,00.0,36.0,28.6,21.5,0000.0,0002.10,0003.89,0001.35
2022-03-29 20:33:00,,0809.6,5.00,0.00,26.8,26.1,00.0,36.0,28.6,21.9,0000.0,0002.08,0003.90,0001.31
2022-03-29 20:34:00,,0809.7,5.00,0.00,26.8,26.1,00.0,35.9,28.6,22.0,0000.0,0001.95,0003.64,0001.24
2022-03-29 20:35:00,,0809.7,4.98,0.00,26.8,26.1,00.0,35.9,28.6,22.1,0000.0,0001.90,0003.73,0001.18
2022-03-29 20:36:00,,0809.6,5.01,0.00,26.8,26.1,00.0,35.9,28.6,21.8,0000.0,0001.84,0003.65,0001.13
2022-03-29 20:37:00,,0809.6,4.98,0.00,26.8,26.1,00.0,35.9,28.6,21.6,0000.0,0001.73,0003.42,0001.09
2022-03-29 20:38:00,,0809.6,4.99,0.00,26.8,26.1,00.0,35.9,28.6,21.7,0000.0,0001.63,0003.22,0001.05
2022-03-29 20:39:00,,0809.7,5.01,0.00,26.8,26.1,00.0,35.9,28.6,21.5,0000.0,0001.59,0003.36,0001.00
2022-03-29 20:40:00,,0809.7,4.99,0.00,26.8,26.1,00.0,35.9,28.6,21.4,0000.0,0001.58,0004.33,0000.96
2022-03-29 20:41:00,,0809.7,5.01,0.00,26.9,26.1,00.0,35.9,28.6,21.2,0000.0,0001.54,0004.23,0000.92
2022-03-29 20:42:00,,0809.7,4.99,0.00,26.9,26.1,00.0,35.9,28.6,21.0,0000.0,0001.51,0004.21,0000.88
2022-03-29 20:43:00,,0809.7,5.00,0.00,26.9,26.1,00.0,35.9,28.6,20.9,0000.0,0001.45,0004.09,0000.85
2022-03-29 20:44:00,,0809.7,5.01,0.00,26.9,26.1,00.0,35.9,28.6,21.0,0000.0,0001.36,0003.88,0000.81
2022-03-29 20:45:00,,0809.7,4.99,0.00,26.9,26.2,00.0,35.9,28.6,21.2,0000.0,0001.36,0003.87,0000.79
2022-03-29 20:46:00,,0809.7,4.98,0.00,26.9,26.2,00.0,35.9,28.6,20.8,0000.0,0001.30,0003.64,0000.78
2022-03-29 20:47:00,,0809.7,5.01,0.00,26.9,26.2,00.0,35.9,28.7,20.7,0000.0,0001.29,0003.51,0000.77
2022-03-29 20:48:00,,0809.6,4.99,0.00,26.9,26.2,00.0,35.9,28.7,20.2,0000.0,0001.28,0003.49,0000.75
2022-03-29 20:49:00,,0809.6,5.00,0.00,26.9,26.2,00.0,35.9,28.7,20.2,0000.0,0001.26,0003.43,0000.73
2022-03-29 20:50:00,,0809.6,5.02,0.00,26.9,26.2,00.0,35.9,28.7,20.6,0000.0,0001.22,0003.14,0000.71
2022-03-29 20:51:00,,0809.6,4.99,0.00,26.9,26.1,00.0,35.9,28.7,20.8,0000.0,0001.14,0001.97,0000.70
2022-03-29 20:52:00,,0809.7,5.00,0.00,26.9,26.2,00.0,35.9,28.7,21.2,0000.0,0001.13,0001.97,0000.70
2022-03-29 20:53:00,,0809.6,5.01,0.00,26.9,26.2,00.0,35.9,28.7,20.7,0000.0,0001.17,0002.04,0000.72
2022-03-29 20:54:00,,0809.7,4.99,0.00,26.9,26.2,00.0,35.9,28.7,20.7,0000.0,0001.20,0002.11,0000.72
2022-03-29 20:55:00,,0809.6,5.00,0.00,26.9,26.2,00.0,35.9,28.7,21.3,0000.0,0001.22,0002.14,0000.73
2022-03-29 20:56:00,,0809.7,5.01,0.00,26.9,26.2,00.0,35.9,28.7,20.7,0000.0,0001.22,0002.40,0000.75
2022-03-29 20:57:00,,0809.7,5.00,0.00,26.9,26.2,00.0,35.9,28.8,20.4,0000.0,0001.26,0003.03,0000.76
2022-03-29 20:58:00,,0809.7,5.00,0.00,27.0,26.2,00.0,35.9,28.8,20.2,0000.0,0001.28,0003.10,0000.76
2022-03-29 20:59:00,,0809.7,5.01,0.00,27.0,26.3,00.0,35.9,28.9,20.8,0000.0,0001.25,0003.01,0000.77
